Regional Weather Roundup
Issued by NWS Sterling, VA

Home | Current Version | Previous Version | Text Only | Print | Product List | Glossary On
Versions: 1 2 3 4 5 6 7 8 9 10 11 12 13 14 15 16 17 18 19 20 21 22 23 24 25 26 27 28 29 30 31 32 33 34 35 36 37 38 39 40 41 42 43 44 45 46 47 48 49 50
000
ASUS41 KLWX 202010
RWRLWX

REGIONAL WEATHER ROUNDUP
NATIONAL WEATHER SERVICE BALTIMORE MD/WASHINGTON DC
400 PM EDT SAT SEP 20 2014

Note: "FAIR" indicates few or no clouds below 12,000 feet
with no significant weather and/or obstructions to visibility.
 TC=TEMPERATURE CELSIUS

 * =Non NWS site. Station does not report precipitation (e.g. rain,
    snow, etc.), thunder, or fog.

DCZ001-MDZ009-015-VAZ040>042-051-053>054-202100-
WASHINGTON METRO

CITY           SKY/WX    TMP DP  RH WIND       PRES   REMARKS
WASHINGTON NAT MOSUNNY   83  56  39 S7        30.11F
DULLES         MOSUNNY   78  56  46 SE10      30.11F
ANDREWS AFB    SUNNY     77  60  55 E7        30.12F
QUANTICO       SUNNY     79  55  43 VRB6      30.11F
COLLEGE PARK*  MOSUNNY   81  59  47 SE7       30.11F
LEESBURG*      MOSUNNY   81  59  47 S10       30.11F
MANASSAS*      SUNNY     79  55  44 S9        30.11F
GAITHERSBURG*  SUNNY     79  55  44 S7        30.15F

$$

MDZ006>007-011-014-202100-
BALTIMORE METRO

CITY           SKY/WX    TMP DP  RH WIND       PRES   REMARKS
BWI AIRPORT    MOSUNNY   78  51  38 S6        30.12F
MD SCIENCE CTR   N/A     79  57  46 MISG      30.12F
MARTIN STATE   MOSUNNY   81  61  50 S7        30.14F
ANNAPOLIS      SUNNY     77  58  51 S6        30.12F
FORT MEADE*    SUNNY     77  50  38 S8        30.14F

$$

MDZ012-015-019>023-202100-
MARYLAND EASTERN SHORE

CITY           SKY/WX    TMP DP  RH WIND       PRES   REMARKS
OCEAN CITY     CLOUDY    73  61  65 SE12      30.14F
SALISBURY      MOSUNNY   79  61  53 E13       30.13F
BAY BRIDGE AP*   N/A     77  59  53 W7        30.12F
CAMBRIDGE*     SUNNY     79  55  44 E9        30.11F
EASTON*        MOSUNNY   82  57  42 S8        30.15F

$$

MDZ017>025-202100-
SOUTHERN MARYLAND

CITY           SKY/WX    TMP DP  RH WIND       PRES   REMARKS
PATUXENT RIVER MOSUNNY   77  61  57 VRB7      30.11F
ST INIGOES     SUNNY     78  59  51 E8        30.11F
LEONARDTOWN*   SUNNY     77  55  47 E8        30.13F

$$

MDZ003>005-202100-
NORTH CENTRAL MARYLAND

CITY           SKY/WX    TMP DP  RH WIND       PRES   REMARKS
FREDERICK*     SUNNY     84  57  39 S3        30.13F
HAGERSTOWN APT SUNNY     78  55  44 S13       30.09F
WESTMINSTER*   MOSUNNY   81  59  47 SE12      30.12F

$$

MDZ501>502-202100-
WESTERN MARYLAND

CITY           SKY/WX    TMP DP  RH WIND       PRES   REMARKS
OAKLAND*       SUNNY     72  54  53 S6        30.14F
CUMBERLAND*    SUNNY     88  54  31 SE8       30.08F

$$

VAZ025>031-202100-
SHENANDOAH VALLEY

CITY           SKY/WX    TMP DP  RH WIND       PRES   REMARKS
WINCHESTER*    MOSUNNY   81  55  41 SE10      30.10F
STAUNTON*      SUNNY     80  52  38 SE9       30.13F

$$

WVZ021-048>050-054>055-202100-
EASTERN WEST VIRGINIA PANHANDLE

CITY           SKY/WX    TMP DP  RH WIND       PRES   REMARKS
MARTINSBURG    SUNNY     80  55  42 S8        30.10F
PETERSBURG*    PTSUNNY   80  49  33 SE6       30.07F

$$

VAZ036>039-050-202100-
CENTRAL FOOTHILLS

CITY           SKY/WX    TMP DP  RH WIND       PRES   REMARKS
CHARLOTTESVILL SUNNY     80  54  40 VRB5      30.11F
ORANGE*        SUNNY     81  52  36 S5        30.12F

$$

VAZ055>057-202100-
NORTH AND CENTRAL PIEDMONT

CITY           SKY/WX    TMP DP  RH WIND       PRES   REMARKS
FREDERICKSBRG* SUNNY     83  55  38 S5        30.09F
STAFFORD*      SUNNY     80  57  45 E10       30.15F

$$

NCZ024-NYZ072-PAZ021-071-VAZ022-071-202100-
OTHER REGIONAL OBSERVATIONS

CITY           SKY/WX    TMP DP  RH WIND       PRES   REMARKS
NEW YORK CITY  PTSUNNY   72  58  61 VRB6G21   30.20F
PHILADELPHIA   MOSUNNY   78  60  53 S13G20    30.15F
PITTSBURGH     PTSUNNY   77  61  57 S9G21     30.01F
ROANOKE        MOSUNNY   76  55  48 S7        30.14F
RICHMOND       PTSUNNY   83  56  39 VRB5      30.09F
RALEIGH        MOSUNNY   80  56  43 N8G16     30.07F

$$

ANZ530>537-202100-
MARINE OBSERVATIONS

STATION/POSITION TIME  TEMP    WIND        PRES
                       AIR SEA DIR/SP/G
                 (UTC) (F)     (DEG/KT/KT) (MB)
THOMAS PT LIGHT  2000   73 74  220/  5/  5 1020.8F
BALT KEY BRIDGE  2000   75     120/  6/  7 1020.2F
COVE POINT       2000   73     190/  8/  9 1020.0F
LEWISETTA        2000   72 74  110/  6/  7 1019.6S
SOLOMONS ISLAND  2000      78                N/A
PINEY POINT      2000          160/  8/  9   N/A

$$



USA.gov is the U.S. government's official web portal to all federal, state and local government web resources and services.